Tracking 29932 objects as of 4-Dec-2024
HD Live streaming from Space Station
objects crossing your sky now

STARLINK-31001

Track STARLINK-31001 now!
10-day predictions
STARLINK-31001 is classified as:


NORAD ID: 58527
Int'l Code: 2023-191V
Perigee: 565.8 km
Apogee: 566.7 km
Inclination: 43.0 °
Period: 95.8 minutes
Semi major axis: 6937 km
RCS: Unknown
Launch date: December 7, 2023
Source: United States (US)
Launch site: AIR FORCE EASTERN TEST RANGE (AFETR)
Your satellite tracking list
Your tracking list is empty




NASA's NSSDC Master Catalog

Two Line Element Set (TLE):
1 58527U 23191V   24338.72013917 -.00001430  00000-0 -90799-4 0  9991
2 58527  43.0028  90.3219 0000656 298.5894  61.4883 15.02538299 56108
Source of the keplerian elements: AFSPC